Time,TemperatureF,DewpointF,PressureIn,WindDirection,WindDirectionDegrees,WindSpeedMPH,WindSpeedGustMPH,Humidity,HourlyPrecipIn,Conditions,Clouds,dailyrainin,SolarRadiationWatts/m^2,SoftwareType,DateUTC
2013-06-19 00:01:00,54.0,26.0,-100.00,East,94,2.0,4.0,33,0.00,,,0.00,0.000000,,2013-06-19 06:01:00,
2013-06-19 00:11:00,54.0,26.0,-100.00,East,94,2.0,4.0,33,0.00,,,0.00,0.000000,,2013-06-19 06:11:00,
2013-06-19 00:21:00,54.0,26.0,-100.00,East,94,2.0,4.0,33,0.00,,,0.00,0.000000,,2013-06-19 06:21:00,
2013-06-19 00:22:00,51.0,19.0,-100.00,East,97,2.0,5.0,28,0.00,,,0.00,0.000000,,2013-06-19 06:22:00,
2013-06-19 00:43:00,51.0,19.0,-100.00,East,97,2.0,5.0,28,0.00,,,0.00,0.000000,,2013-06-19 06:43:00,
2013-06-19 00:52:00,51.0,19.0,-100.00,East,97,2.0,5.0,28,0.00,,,0.00,0.000000,,2013-06-19 06:52:00,
2013-06-19 01:01:00,51.0,19.0,-100.00,East,97,2.0,5.0,28,0.00,,,0.00,0.000000,,2013-06-19 07:01:00,
2013-06-19 01:11:00,51.0,19.0,-100.00,East,97,2.0,5.0,28,0.00,,,0.00,0.000000,,2013-06-19 07:11:00,
2013-06-19 01:22:00,52.0,23.0,-100.00,ESE,109,4.0,7.0,32,0.00,,,0.00,0.000000,,2013-06-19 07:22:00,
2013-06-19 01:43:00,52.0,23.0,-100.00,ESE,109,4.0,7.0,32,0.00,,,0.00,0.000000,,2013-06-19 07:43:00,
2013-06-19 01:53:00,52.0,23.0,-100.00,ESE,109,4.0,7.0,32,0.00,,,0.00,0.000000,,2013-06-19 07:53:00,
2013-06-19 02:02:00,52.0,23.0,-100.00,ESE,109,4.0,7.0,32,0.00,,,0.00,0.000000,,2013-06-19 08:02:00,
2013-06-19 02:11:00,52.0,23.0,-100.00,ESE,109,4.0,7.0,32,0.00,,,0.00,0.000000,,2013-06-19 08:11:00,
2013-06-19 02:22:00,48.0,18.0,-100.00,East,90,2.0,7.0,30,0.00,,,0.00,0.000000,,2013-06-19 08:22:00,
2013-06-19 02:43:00,48.0,18.0,-100.00,East,90,2.0,7.0,30,0.00,,,0.00,0.000000,,2013-06-19 08:43:00,
2013-06-19 02:54:00,48.0,18.0,-100.00,East,90,2.0,7.0,30,0.00,,,0.00,0.000000,,2013-06-19 08:54:00,
2013-06-19 03:02:00,48.0,18.0,-100.00,East,90,2.0,7.0,30,0.00,,,0.00,0.000000,,2013-06-19 09:02:00,
2013-06-19 03:11:00,48.0,18.0,-100.00,East,90,2.0,7.0,30,0.00,,,0.00,0.000000,,2013-06-19 09:11:00,
2013-06-19 03:22:00,50.0,15.0,-100.00,ESE,107,2.0,5.0,24,0.00,,,0.00,0.000000,,2013-06-19 09:22:00,
2013-06-19 03:44:00,50.0,15.0,-100.00,ESE,107,2.0,5.0,24,0.00,,,0.00,0.000000,,2013-06-19 09:44:00,
2013-06-19 03:53:00,50.0,15.0,-100.00,ESE,107,2.0,5.0,24,0.00,,,0.00,0.000000,,2013-06-19 09:53:00,
2013-06-19 04:02:00,50.0,15.0,-100.00,ESE,107,2.0,5.0,24,0.00,,,0.00,0.000000,,2013-06-19 10:02:00,
2013-06-19 04:11:00,50.0,15.0,-100.00,ESE,107,2.0,5.0,24,0.00,,,0.00,0.000000,,2013-06-19 10:11:00,
2013-06-19 04:22:00,51.0,16.0,-100.00,East,96,3.0,7.0,25,0.00,,,0.00,0.000000,,2013-06-19 10:22:00,
2013-06-19 04:43:00,51.0,16.0,-100.00,East,96,3.0,7.0,25,0.00,,,0.00,0.000000,,2013-06-19 10:43:00,
2013-06-19 05:22:00,44.0,17.0,-100.00,East,95,2.0,5.0,33,0.00,,,0.00,0.000000,,2013-06-19 11:22:00,
2013-06-19 05:43:00,44.0,17.0,-100.00,East,95,2.0,5.0,33,0.00,,,0.00,0.000000,,2013-06-19 11:43:00,
2013-06-19 05:54:00,44.0,17.0,-100.00,East,95,2.0,5.0,33,0.00,,,0.00,0.000000,,2013-06-19 11:54:00,
2013-06-19 06:01:00,44.0,17.0,-100.00,East,95,2.0,5.0,33,0.00,,,0.00,0.000000,,2013-06-19 12:01:00,
2013-06-19 06:12:00,44.0,17.0,-100.00,East,95,2.0,5.0,33,0.00,,,0.00,0.000000,,2013-06-19 12:12:00,
2013-06-19 06:22:00,46.0,17.0,-100.00,East,81,1.0,3.0,31,0.00,,,0.00,15.000000,,2013-06-19 12:22:00,
2013-06-19 06:44:00,46.0,17.0,-100.00,East,81,1.0,3.0,31,0.00,,,0.00,15.000000,,2013-06-19 12:44:00,
2013-06-19 06:53:00,46.0,17.0,-100.00,East,81,1.0,3.0,31,0.00,,,0.00,15.000000,,2013-06-19 12:53:00,
2013-06-19 07:02:00,46.0,17.0,-100.00,East,81,1.0,3.0,31,0.00,,,0.00,15.000000,,2013-06-19 13:02:00,
2013-06-19 07:12:00,46.0,17.0,-100.00,East,81,1.0,3.0,31,0.00,,,0.00,15.000000,,2013-06-19 13:12:00,
2013-06-19 07:22:00,49.0,23.0,-100.00,NE,52,2.0,3.0,35,0.00,,,0.00,48.000000,,2013-06-19 13:22:00,
2013-06-19 07:43:00,49.0,23.0,-100.00,NE,52,2.0,3.0,35,0.00,,,0.00,48.000000,,2013-06-19 13:43:00,
2013-06-19 07:54:00,49.0,23.0,-100.00,NE,52,2.0,3.0,35,0.00,,,0.00,48.000000,,2013-06-19 13:54:00,
2013-06-19 08:02:00,49.0,23.0,-100.00,NE,52,2.0,3.0,35,0.00,,,0.00,48.000000,,2013-06-19 14:02:00,
2013-06-19 08:11:00,49.0,23.0,-100.00,NE,52,2.0,3.0,35,0.00,,,0.00,48.000000,,2013-06-19 14:11:00,
2013-06-19 08:22:00,54.0,26.0,-100.00,NNE,29,2.0,3.0,33,0.00,,,0.00,81.000000,,2013-06-19 14:22:00,
2013-06-19 08:44:00,54.0,26.0,-100.00,NNE,29,2.0,3.0,33,0.00,,,0.00,81.000000,,2013-06-19 14:44:00,
2013-06-19 08:53:00,54.0,26.0,-100.00,NNE,29,2.0,3.0,33,0.00,,,0.00,81.000000,,2013-06-19 14:53:00,
2013-06-19 09:01:00,54.0,26.0,-100.00,NNE,29,2.0,3.0,33,0.00,,,0.00,81.000000,,2013-06-19 15:01:00,
2013-06-19 09:11:00,54.0,26.0,-100.00,NNE,29,2.0,3.0,33,0.00,,,0.00,81.000000,,2013-06-19 15:11:00,
2013-06-19 09:22:00,64.0,29.0,-100.00,NW,312,2.0,3.0,27,0.00,,,0.00,655.000000,,2013-06-19 15:22:00,
2013-06-19 09:43:00,64.0,29.0,-100.00,NW,312,2.0,3.0,27,0.00,,,0.00,655.000000,,2013-06-19 15:43:00,
2013-06-19 09:53:00,64.0,29.0,-100.00,NW,312,2.0,3.0,27,0.00,,,0.00,655.000000,,2013-06-19 15:53:00,
2013-06-19 10:01:00,64.0,29.0,-100.00,NW,312,2.0,3.0,27,0.00,,,0.00,655.000000,,2013-06-19 16:01:00,
2013-06-19 10:11:00,64.0,29.0,-100.00,NW,312,2.0,3.0,27,0.00,,,0.00,655.000000,,2013-06-19 16:11:00,
2013-06-19 11:22:00,74.0,20.0,-100.00,NW,308,3.0,7.0,13,0.00,,,0.00,1031.000000,,2013-06-19 17:22:00,
2013-06-19 12:01:00,74.0,20.0,-100.00,NW,308,3.0,7.0,13,0.00,,,0.00,1031.000000,,2013-06-19 18:01:00,
2013-06-19 12:11:00,74.0,20.0,-100.00,NW,308,3.0,7.0,13,0.00,,,0.00,1031.000000,,2013-06-19 18:11:00,
2013-06-19 12:22:00,77.0,16.0,-100.00,West,277,4.0,16.0,10,0.00,,,0.00,1127.000000,,2013-06-19 18:22:00,
2013-06-19 12:44:00,77.0,16.0,-100.00,West,277,4.0,16.0,10,0.00,,,0.00,1127.000000,,2013-06-19 18:44:00,
2013-06-19 12:53:00,77.0,16.0,-100.00,West,277,4.0,16.0,10,0.00,,,0.00,1127.000000,,2013-06-19 18:53:00,
2013-06-19 13:01:00,77.0,16.0,-100.00,West,277,4.0,16.0,10,0.00,,,0.00,1127.000000,,2013-06-19 19:01:00,
2013-06-19 13:11:00,77.0,16.0,-100.00,West,277,4.0,16.0,10,0.00,,,0.00,1127.000000,,2013-06-19 19:11:00,
2013-06-19 13:22:00,77.0,14.0,-100.00,NW,307,6.0,11.0,9,0.00,,,0.00,1183.000000,,2013-06-19 19:22:00,
2013-06-19 13:43:00,77.0,14.0,-100.00,NW,307,6.0,11.0,9,0.00,,,0.00,1183.000000,,2013-06-19 19:43:00,
2013-06-19 13:53:00,77.0,14.0,-100.00,NW,307,6.0,11.0,9,0.00,,,0.00,1183.000000,,2013-06-19 19:53:00,
2013-06-19 14:02:00,77.0,14.0,-100.00,NW,307,6.0,11.0,9,0.00,,,0.00,1183.000000,,2013-06-19 20:02:00,
2013-06-19 14:11:00,77.0,14.0,-100.00,NW,307,6.0,11.0,9,0.00,,,0.00,1183.000000,,2013-06-19 20:11:00,
2013-06-19 14:22:00,79.0,13.0,-100.00,NW,323,5.0,12.0,8,0.00,,,0.00,1149.000000,,2013-06-19 20:22:00,
2013-06-19 14:43:00,79.0,13.0,-100.00,NW,323,5.0,12.0,8,0.00,,,0.00,1149.000000,,2013-06-19 20:43:00,
2013-06-19 14:52:00,79.0,13.0,-100.00,NW,323,5.0,12.0,8,0.00,,,0.00,1149.000000,,2013-06-19 20:52:00,
2013-06-19 15:02:00,79.0,13.0,-100.00,NW,323,5.0,12.0,8,0.00,,,0.00,1149.000000,,2013-06-19 21:02:00,
2013-06-19 15:11:00,79.0,13.0,-100.00,NW,323,5.0,12.0,8,0.00,,,0.00,1149.000000,,2013-06-19 21:11:00,
2013-06-19 15:22:00,80.0,7.0,-100.00,West,265,8.0,17.0,6,0.00,,,0.00,906.000000,,2013-06-19 21:22:00,
2013-06-19 15:44:00,80.0,7.0,-100.00,West,265,8.0,17.0,6,0.00,,,0.00,906.000000,,2013-06-19 21:44:00,
2013-06-19 15:52:00,80.0,7.0,-100.00,West,265,8.0,17.0,6,0.00,,,0.00,906.000000,,2013-06-19 21:52:00,
2013-06-19 16:01:00,80.0,7.0,-100.00,West,265,8.0,17.0,6,0.00,,,0.00,906.000000,,2013-06-19 22:01:00,
2013-06-19 16:11:00,80.0,7.0,-100.00,West,265,8.0,17.0,6,0.00,,,0.00,906.000000,,2013-06-19 22:11:00,
2013-06-19 16:22:00,79.0,2.0,-100.00,SW,231,10.0,19.0,5,0.00,,,0.00,1003.000000,,2013-06-19 22:22:00,
2013-06-19 16:43:00,79.0,2.0,-100.00,SW,231,10.0,19.0,5,0.00,,,0.00,1003.000000,,2013-06-19 22:43:00,
2013-06-19 16:53:00,79.0,2.0,-100.00,SW,231,10.0,19.0,5,0.00,,,0.00,1003.000000,,2013-06-19 22:53:00,
2013-06-19 17:02:00,79.0,2.0,-100.00,SW,231,10.0,19.0,5,0.00,,,0.00,1003.000000,,2013-06-19 23:02:00,
2013-06-19 17:12:00,79.0,2.0,-100.00,SW,231,10.0,19.0,5,0.00,,,0.00,1003.000000,,2013-06-19 23:12:00,
2013-06-19 17:22:00,78.0,2.0,-100.00,SW,235,9.0,19.0,5,0.00,,,0.00,817.000000,,2013-06-19 23:22:00,
2013-06-19 17:43:00,78.0,2.0,-100.00,SW,235,9.0,19.0,5,0.00,,,0.00,817.000000,,2013-06-19 23:43:00,
2013-06-19 17:52:00,78.0,2.0,-100.00,SW,235,9.0,19.0,5,0.00,,,0.00,817.000000,,2013-06-19 23:52:00,
2013-06-19 18:01:00,78.0,2.0,-100.00,SW,235,9.0,19.0,5,0.00,,,0.00,817.000000,,2013-06-20 00:01:00,
2013-06-19 18:12:00,78.0,2.0,-100.00,SW,235,9.0,19.0,5,0.00,,,0.00,817.000000,,2013-06-20 00:12:00,
2013-06-19 18:22:00,76.0,4.0,-100.00,WSW,242,9.0,15.0,6,0.00,,,0.00,585.000000,,2013-06-20 00:22:00,
2013-06-19 18:44:00,76.0,4.0,-100.00,WSW,242,9.0,15.0,6,0.00,,,0.00,585.000000,,2013-06-20 00:44:00,
2013-06-19 18:52:00,76.0,4.0,-100.00,WSW,242,9.0,15.0,6,0.00,,,0.00,585.000000,,2013-06-20 00:52:00,
2013-06-19 19:02:00,76.0,4.0,-100.00,WSW,242,9.0,15.0,6,0.00,,,0.00,585.000000,,2013-06-20 01:02:00,
2013-06-19 19:11:00,76.0,4.0,-100.00,WSW,242,9.0,15.0,6,0.00,,,0.00,585.000000,,2013-06-20 01:11:00,
2013-06-19 19:22:00,73.0,5.0,-100.00,SW,234,9.0,14.0,7,0.00,,,0.00,347.000000,,2013-06-20 01:22:00,
2013-06-19 19:44:00,73.0,5.0,-100.00,SW,234,9.0,14.0,7,0.00,,,0.00,347.000000,,2013-06-20 01:44:00,
2013-06-19 19:52:00,73.0,5.0,-100.00,SW,234,9.0,14.0,7,0.00,,,0.00,347.000000,,2013-06-20 01:52:00,
2013-06-19 20:02:00,73.0,5.0,-100.00,SW,234,9.0,14.0,7,0.00,,,0.00,347.000000,,2013-06-20 02:02:00,
2013-06-19 20:11:00,73.0,5.0,-100.00,SW,234,9.0,14.0,7,0.00,,,0.00,347.000000,,2013-06-20 02:11:00,
2013-06-19 20:22:00,68.0,5.0,-100.00,SW,224,6.0,13.0,8,0.00,,,0.00,38.000000,,2013-06-20 02:22:00,
2013-06-19 20:43:00,68.0,5.0,-100.00,SW,224,6.0,13.0,8,0.00,,,0.00,38.000000,,2013-06-20 02:43:00,
2013-06-19 20:52:00,68.0,5.0,-100.00,SW,224,6.0,13.0,8,0.00,,,0.00,38.000000,,2013-06-20 02:52:00,
2013-06-19 21:02:00,68.0,5.0,-100.00,SW,224,6.0,13.0,8,0.00,,,0.00,38.000000,,2013-06-20 03:02:00,
2013-06-19 21:11:00,68.0,5.0,-100.00,SW,224,6.0,13.0,8,0.00,,,0.00,38.000000,,2013-06-20 03:11:00,
2013-06-19 21:22:00,63.0,3.0,-100.00,SSW,210,5.0,6.0,9,0.00,,,0.00,2.000000,,2013-06-20 03:22:00,
2013-06-19 21:43:00,63.0,3.0,-100.00,SSW,210,5.0,6.0,9,0.00,,,0.00,2.000000,,2013-06-20 03:43:00,
2013-06-19 21:54:00,63.0,3.0,-100.00,SSW,210,5.0,6.0,9,0.00,,,0.00,2.000000,,2013-06-20 03:54:00,
2013-06-19 22:01:00,63.0,3.0,-100.00,SSW,210,5.0,6.0,9,0.00,,,0.00,2.000000,,2013-06-20 04:01:00,
2013-06-19 22:11:00,63.0,3.0,-100.00,SSW,210,5.0,6.0,9,0.00,,,0.00,2.000000,,2013-06-20 04:11:00,
2013-06-19 22:22:00,60.0,3.0,-100.00,SSW,197,5.0,7.0,10,0.00,,,0.00,0.000000,,2013-06-20 04:22:00,
2013-06-19 22:44:00,60.0,3.0,-100.00,SSW,197,5.0,7.0,10,0.00,,,0.00,0.000000,,2013-06-20 04:44:00,
2013-06-19 22:54:00,60.0,3.0,-100.00,SSW,197,5.0,7.0,10,0.00,,,0.00,0.000000,,2013-06-20 04:54:00,
2013-06-19 23:02:00,60.0,3.0,-100.00,SSW,197,5.0,7.0,10,0.00,,,0.00,0.000000,,2013-06-20 05:02:00,
2013-06-19 23:12:00,60.0,3.0,-100.00,SSW,197,5.0,7.0,10,0.00,,,0.00,0.000000,,2013-06-20 05:12:00,
2013-06-19 23:44:00,58.0,2.0,-100.00,SSE,165,2.0,7.0,10,0.00,,,0.00,0.000000,,2013-06-20 05:44:00,
2013-06-19 23:53:00,58.0,2.0,-100.00,SSE,165,2.0,7.0,10,0.00,,,0.00,0.000000,,2013-06-20 05:53:00,